Location: Houhaj�rvi
(61.2667°N, 23.0167°E)
Time: 19:51:13
(UTC+00:00)

H-2A R/B - Pass Details

Date: 13 December 2019
Orbit: 501 x 541 km, 97.3° (Epoch: 16 January)

Event Time Altitude Azimuth Distance (km) Brightness Sun altitude
Rises 14:20:13 0° 128° (SE) 2,601 6.1 -6.9°
Reaches altitude 10° 14:22:30 10° 117° (ESE) 1,718 5.1 -7.2°
Maximum altitude 14:25:39 27° 58° (ENE) 1,001 3.6 -7.5°
Drops below altitude 10° 14:28:48 10° 360° (N) 1,729 5.0 -7.8°
Sets 14:31:06 0° 348° (NNW) 2,621 6.0 -8.0°
